| time (UTC) | temp F | wind direction | speed MPH | gust MPH | rain 1hr in | rain 24hr in | rain mn in | humidity % | barometer mb |
| 20260507065224 | 46 | 349 | 4.0 | 10.0 | 0.00 | 0.07 | 0.00 | 80 | 1007.3 |
| 20260507064221 | 46 | 302 | 3.0 | 7.0 | 0.00 | 0.08 | 0.00 | 80 | 1007.2 |
| 20260507063218 | 46 | 342 | 3.0 | 8.0 | 0.00 | 0.09 | 0.00 | 80 | 1007.1 |
| 20260507062315 | 46 | 0 | 2.0 | 7.0 | 0.00 | 0.11 | 0.00 | 80 | 1007.1 |
| 20260507061311 | 46 | 337 | 4.0 | 11.0 | 0.00 | 0.12 | 0.00 | 80 | 1006.8 |
| 20260507060308 | 46 | 10 | 3.0 | 6.0 | 0.00 | 0.14 | 0.00 | 80 | 1006.7 |
| 20260507055306 | 46 | 356 | 2.0 | 5.0 | 0.00 | 0.17 | 0.00 | 80 | 1006.5 |
| 20260507054302 | 46 | 326 | 2.0 | 4.0 | 0.00 | 0.18 | 0.00 | 80 | 1006.4 |
| 20260507053258 | 46 | 339 | 3.0 | 4.0 | 0.00 | 0.19 | 0.00 | 80 | 1006.4 |
| 20260507052255 | 46 | 90 | 1.0 | 4.0 | 0.00 | 0.20 | 0.00 | 81 | 1006.3 |
| 20260507051252 | 46 | 39 | 3.0 | 5.0 | 0.00 | 0.21 | 0.00 | 81 | 1006.3 |
| 20260507050249 | 45 | 335 | 3.0 | 5.0 | 0.00 | 0.22 | 0.00 | 87 | 1006.2 |
| 20260507045246 | 45 | 334 | 2.0 | 4.0 | 0.00 | 0.24 | 0.00 | 88 | 1006.2 |
| 20260507044242 | 45 | 316 | 3.0 | 6.0 | 0.00 | 0.26 | 0.00 | 88 | 1006.0 |
| 20260507043239 | 45 | 0.0 | 1.0 | 0.00 | 0.26 | 0.00 | 88 | 1006.0 | |
| 20260507042236 | 45 | 0 | 2.0 | 4.0 | 0.00 | 0.27 | 0.00 | 88 | 1006.0 |
| 20260507041233 | 45 | 344 | 3.0 | 7.0 | 0.00 | 0.28 | 0.00 | 88 | 1005.9 |
| 20260507040230 | 45 | 350 | 3.0 | 6.0 | 0.00 | 0.28 | 0.00 | 88 | 1005.7 |
| 20260507035227 | 45 | 350 | 2.0 | 6.0 | 0.00 | 0.28 | 0.00 | 88 | 1005.7 |
| 20260507034223 | 45 | 27 | 1.0 | 3.0 | 0.00 | 0.30 | 0.00 | 88 | 1005.7 |
| 20260507033220 | 45 | 353 | 3.0 | 8.0 | 0.00 | 0.31 | 0.00 | 88 | 1005.4 |
| 20260507032217 | 45 | 0 | 3.0 | 5.0 | 0.00 | 0.31 | 0.00 | 88 | 1005.5 |
| 20260507031314 | 45 | 17 | 2.0 | 4.0 | 0.00 | 0.32 | 0.00 | 88 | 1005.5 |
| 20260507030311 | 45 | 354 | 4.0 | 8.0 | 0.00 | 0.33 | 0.00 | 88 | 1005.5 |
| 20260507025308 | 45 | 343 | 4.0 | 8.0 | 0.00 | 0.33 | 0.00 | 88 | 1005.4 |
| 20260507024304 | 45 | 16 | 2.0 | 5.0 | 0.00 | 0.34 | 0.00 | 87 | 1005.2 |
| 20260507023300 | 45 | 22 | 1.0 | 5.0 | 0.00 | 0.35 | 0.00 | 87 | 1005.2 |
| 20260507022257 | 45 | 19 | 1.0 | 6.0 | 0.00 | 0.37 | 0.00 | 87 | 1005.2 |
| 20260507021252 | 45 | 0 | 0.0 | 4.0 | 0.00 | 0.39 | 0.00 | 87 | 1005.1 |
| 20260507020249 | 45 | 43 | 2.0 | 4.0 | 0.00 | 0.40 | 0.00 | 87 | 1005.1 |
| 20260507015245 | 45 | 307 | 2.0 | 4.0 | 0.00 | 0.41 | 0.00 | 87 | 1005.1 |
| 20260507014241 | 45 | 347 | 3.0 | 6.0 | 0.00 | 0.43 | 0.00 | 86 | 1004.8 |
| 20260507013238 | 45 | 327 | 3.0 | 6.0 | 0.00 | 0.43 | 0.00 | 86 | 1004.8 |
| 20260507012234 | 45 | 333 | 4.0 | 7.0 | 0.00 | 0.45 | 0.00 | 86 | 1004.8 |
| 20260507011230 | 45 | 336 | 4.0 | 9.0 | 0.00 | 0.46 | 0.00 | 86 | 1004.7 |
| 20260507010227 | 45 | 329 | 5.0 | 8.0 | 0.00 | 0.46 | 0.00 | 86 | 1004.7 |
| 20260507005224 | 45 | 340 | 4.0 | 7.0 | 0.00 | 0.47 | 0.00 | 82 | 1004.7 |
| 20260507004221 | 46 | 322 | 4.0 | 8.0 | 0.00 | 0.50 | 0.00 | 82 | 1004.5 |
| 20260507003217 | 46 | 11 | 3.0 | 5.0 | 0.00 | 0.52 | 0.00 | 81 | 1004.2 |
| 20260507002315 | 47 | 0 | 4.0 | 9.0 | 0.00 | 0.53 | 0.00 | 81 | 1004.2 |
| 20260507001311 | 48 | 24 | 4.0 | 8.0 | 0.00 | 0.54 | 0.00 | 81 | 1004.0 |
| 20260507000308 | 48 | 323 | 5.0 | 9.0 | 0.00 | 0.56 | 0.00 | 81 | 1003.9 |
| 20260506235306 | 49 | 333 | 3.0 | 8.0 | 0.00 | 0.57 | 0.00 | 81 | 1003.9 |
| 20260506234301 | 49 | 340 | 3.0 | 6.0 | 0.00 | 0.57 | 0.00 | 80 | 1003.8 |
| 20260506233258 | 49 | 158 | 3.0 | 5.0 | 0.00 | 0.58 | 0.00 | 80 | 1003.8 |
| 20260506232255 | 50 | 295 | 5.0 | 11.0 | 0.00 | 0.58 | 0.00 | 80 | 1003.8 |
| 20260506231252 | 50 | 314 | 4.0 | 9.0 | 0.00 | 0.58 | 0.00 | 80 | 1003.8 |
| 20260506230248 | 50 | 352 | 3.0 | 7.0 | 0.00 | 0.58 | 0.00 | 80 | 1003.7 |
| 20260506225245 | 50 | 339 | 4.0 | 8.0 | 0.00 | 0.58 | 0.00 | 80 | 1003.7 |
| 20260506224242 | 51 | 11 | 3.0 | 5.0 | 0.00 | 0.59 | 0.00 | 80 | 1003.6 |
| 20260506223239 | 51 | 329 | 3.0 | 7.0 | 0.00 | 0.59 | 0.00 | 80 | 1003.6 |
| 20260506222236 | 51 | 328 | 2.0 | 4.0 | 0.00 | 0.59 | 0.00 | 80 | 1003.6 |
| 20260506221232 | 51 | 333 | 3.0 | 6.0 | 0.00 | 0.59 | 0.00 | 80 | 1003.5 |
| 20260506220229 | 51 | 315 | 4.0 | 7.0 | 0.00 | 0.59 | 0.00 | 81 | 1003.5 |
| 20260506215226 | 51 | 338 | 4.0 | 8.0 | 0.00 | 0.59 | 0.59 | 83 | 1003.5 |
| 20260506214223 | 51 | 351 | 2.0 | 6.0 | 0.00 | 0.59 | 0.59 | 83 | 1003.5 |
| 20260506213220 | 51 | 0 | 2.0 | 4.0 | 0.00 | 0.59 | 0.59 | 84 | 1003.3 |
| 20260506212216 | 51 | 0 | 1.0 | 3.0 | 0.00 | 0.59 | 0.59 | 84 | 1003.3 |
| 20260506211314 | 51 | 0 | 2.0 | 3.0 | 0.00 | 0.59 | 0.59 | 83 | 1003.2 |
| 20260506210310 | 51 | 350 | 2.0 | 5.0 | 0.00 | 0.59 | 0.59 | 83 | 1003.3 |
| 20260506205307 | 51 | 329 | 1.0 | 2.0 | 0.00 | 0.59 | 0.59 | 83 | 1003.3 |
| 20260506204304 | 51 | 17 | 2.0 | 4.0 | 0.00 | 0.59 | 0.59 | 83 | 1003.2 |
| 20260506203300 | 51 | 0 | 2.0 | 4.0 | 0.00 | 0.59 | 0.59 | 82 | 1003.0 |
| 20260506202257 | 51 | 328 | 1.0 | 4.0 | 0.00 | 0.59 | 0.59 | 82 | 1003.2 |
| 20260506201253 | 51 | 6 | 2.0 | 5.0 | 0.00 | 0.59 | 0.59 | 81 | 1003.0 |
| 20260506200248 | 51 | 334 | 4.0 | 8.0 | 0.00 | 0.59 | 0.59 | 81 | 1002.8 |
| 20260506195245 | 51 | 6 | 3.0 | 8.0 | 0.00 | 0.59 | 0.59 | 83 | 1003.0 |
| 20260506194241 | 51 | 10 | 2.0 | 4.0 | 0.00 | 0.59 | 0.59 | 83 | 1002.9 |
| 20260506193237 | 51 | 328 | 2.0 | 7.0 | 0.00 | 0.59 | 0.59 | 83 | 1002.8 |
| 20260506192233 | 51 | 333 | 2.0 | 4.0 | 0.00 | 0.59 | 0.59 | 83 | 1002.7 |
| 20260506191301 | 51 | 328 | 2.0 | 4.0 | 0.00 | 0.59 | 0.59 | 82 | 1002.6 |
| 20260506190256 | 52 | 14 | 2.0 | 4.0 | 0.00 | 0.59 | 0.59 | 82 | 1002.4 |
| 20260506185253 | 53 | 354 | 3.0 | 6.0 | 0.00 | 0.59 | 0.59 | 81 | 1002.4 |
| 20260506184249 | 53 | 296 | 4.0 | 8.0 | 0.00 | 0.59 | 0.59 | 81 | 1002.2 |
| 20260506183244 | 54 | 346 | 4.0 | 10.0 | 0.00 | 0.59 | 0.59 | 81 | 1002.2 |
| 20260506182241 | 54 | 306 | 3.0 | 8.0 | 0.00 | 0.59 | 0.59 | 81 | 1002.0 |
| 20260506181237 | 54 | 330 | 2.0 | 4.0 | 0.00 | 0.59 | 0.59 | 81 | 1001.9 |
| 20260506180233 | 54 | 355 | 1.0 | 4.0 | 0.00 | 0.59 | 0.59 | 81 | 1001.8 |
| 20260506175229 | 55 | 314 | 4.0 | 8.0 | 0.00 | 0.59 | 0.59 | 78 | 1001.7 |
| 20260506174225 | 55 | 349 | 3.0 | 7.0 | 0.00 | 0.59 | 0.59 | 78 | 1001.5 |
| 20260506173222 | 55 | 16 | 3.0 | 6.0 | 0.00 | 0.59 | 0.59 | 77 | 1001.4 |
| 20260506172219 | 55 | 338 | 0.0 | 2.0 | 0.00 | 0.59 | 0.59 | 76 | 1001.4 |
| 20260506171215 | 55 | 61 | 2.0 | 4.0 | 0.00 | 0.59 | 0.59 | 76 | 1001.4 |
| 20260506170312 | 56 | 310 | 3.0 | 5.0 | 0.00 | 0.59 | 0.59 | 74 | 1001.3 |
| 20260506165309 | 56 | 339 | 3.0 | 7.0 | 0.00 | 0.59 | 0.59 | 74 | 1001.1 |
| 20260506164306 | 57 | 0 | 2.0 | 4.0 | 0.00 | 0.59 | 0.59 | 72 | 1001.1 |
| 20260506163303 | 57 | 345 | 4.0 | 8.0 | 0.00 | 0.59 | 0.59 | 72 | 1001.1 |
| 20260506162259 | 59 | 346 | 2.0 | 6.0 | 0.00 | 0.59 | 0.59 | 73 | 1001.3 |
| 20260506161256 | 59 | 341 | 3.0 | 7.0 | 0.00 | 0.59 | 0.59 | 72 | 1001.2 |
| 20260506160253 | 60 | 254 | 4.0 | 6.0 | 0.00 | 0.59 | 0.59 | 72 | 1001.3 |
| 20260506155250 | 57 | 192 | 2.0 | 4.0 | 0.00 | 0.59 | 0.59 | 78 | 1001.4 |
| 20260506154247 | 56 | 346 | 4.0 | 9.0 | 0.00 | 0.59 | 0.59 | 78 | 1001.5 |
| 20260506153243 | 56 | 285 | 3.0 | 6.0 | 0.00 | 0.59 | 0.59 | 78 | 1001.7 |
| 20260506152240 | 56 | 345 | 4.0 | 6.0 | 0.00 | 0.59 | 0.59 | 75 | 1001.7 |
| 20260506151237 | 57 | 311 | 3.0 | 5.0 | 0.00 | 0.59 | 0.59 | 77 | 1001.6 |
| 20260506150234 | 57 | 342 | 3.0 | 5.0 | 0.00 | 0.59 | 0.59 | 78 | 1001.6 |
| 20260506145231 | 56 | 346 | 2.0 | 4.0 | 0.00 | 0.59 | 0.59 | 80 | 1001.4 |
| 20260506143224 | 56 | 342 | 4.0 | 6.0 | 0.00 | 0.59 | 0.59 | 76 | 1001.5 |
| 20260506142221 | 57 | 321 | 3.0 | 6.0 | 0.00 | 0.59 | 0.59 | 76 | 1001.4 |
| 20260506141218 | 57 | 347 | 2.0 | 4.0 | 0.00 | 0.59 | 0.59 | 79 | 1001.4 |
| 20260506140215 | 56 | 19 | 2.0 | 4.0 | 0.00 | 0.59 | 0.59 | 78 | 1001.4 |
| 20260506135312 | 56 | 350 | 3.0 | 4.0 | 0.00 | 0.59 | 0.59 | 78 | 1001.4 |
| 20260506134308 | 56 | 340 | 4.0 | 6.0 | 0.00 | 0.59 | 0.59 | 77 | 1001.4 |
| 20260506133305 | 57 | 339 | 3.0 | 9.0 | 0.00 | 0.59 | 0.59 | 79 | 1001.4 |
| 20260506132302 | 56 | 313 | 1.0 | 3.0 | 0.00 | 0.59 | 0.59 | 78 | 1001.4 |
| 20260506131258 | 56 | 351 | 3.0 | 5.0 | 0.00 | 0.59 | 0.59 | 77 | 1001.4 |
| 20260506130254 | 56 | 338 | 3.0 | 5.0 | 0.00 | 0.59 | 0.59 | 77 | 1001.3 |
| 20260506125251 | 56 | 314 | 3.0 | 6.0 | 0.00 | 0.59 | 0.59 | 80 | 1001.2 |
| 20260506124246 | 56 | 314 | 2.0 | 4.0 | 0.00 | 0.59 | 0.59 | 81 | 1001.4 |
| 20260506123242 | 56 | 331 | 2.0 | 3.0 | 0.00 | 0.59 | 0.59 | 81 | 1001.5 |
| 20260506122238 | 56 | 328 | 3.0 | 4.0 | 0.00 | 0.59 | 0.59 | 81 | 1001.4 |
| 20260506121234 | 56 | 341 | 2.0 | 4.0 | 0.00 | 0.59 | 0.59 | 81 | 1001.4 |
| 20260506120230 | 55 | 324 | 1.0 | 2.0 | 0.00 | 0.59 | 0.59 | 81 | 1001.4 |
| 20260506115226 | 55 | 310 | 1.0 | 4.0 | 0.00 | 0.59 | 0.59 | 81 | 1001.3 |
| 20260506114223 | 55 | 277 | 2.0 | 3.0 | 0.00 | 0.59 | 0.59 | 80 | 1001.2 |
| 20260506113220 | 56 | 259 | 2.0 | 3.0 | 0.00 | 0.59 | 0.59 | 80 | 1001.3 |
| 20260506112217 | 56 | 333 | 2.0 | 4.0 | 0.00 | 0.59 | 0.59 | 81 | 1001.1 |
| 20260506111314 | 56 | 342 | 1.0 | 4.0 | 0.00 | 0.59 | 0.59 | 81 | 1001.0 |
| 20260506110311 | 55 | 328 | 3.0 | 5.0 | 0.00 | 0.59 | 0.59 | 83 | 1000.6 |
| 20260506105308 | 55 | 321 | 3.0 | 4.0 | 0.00 | 0.59 | 0.59 | 83 | 1000.6 |
| 20260506104304 | 54 | 350 | 3.0 | 5.0 | 0.00 | 0.59 | 0.59 | 86 | 1000.6 |
| 20260506103301 | 55 | 294 | 3.0 | 6.0 | 0.00 | 0.59 | 0.59 | 84 | 1000.6 |
| 20260506102258 | 56 | 327 | 3.0 | 5.0 | 0.00 | 0.59 | 0.59 | 87 | 1000.6 |
| 20260506101255 | 55 | 343 | 2.0 | 4.0 | 0.00 | 0.59 | 0.59 | 91 | 1000.4 |
| 20260506100252 | 55 | 11 | 4.0 | 7.0 | 0.01 | 0.59 | 0.59 | 93 | 1000.3 |
| 20260506095248 | 54 | 310 | 4.0 | 7.0 | 0.02 | 0.59 | 0.59 | 97 | 1000.3 |
| 20260506094245 | 54 | 304 | 4.0 | 8.0 | 0.02 | 0.59 | 0.59 | 99 | 1000.2 |
| 20260506093242 | 53 | 323 | 3.0 | 6.0 | 0.02 | 0.59 | 0.59 | 99 | 1000.0 |
| 20260506092239 | 54 | 292 | 5.0 | 8.0 | 0.02 | 0.59 | 0.59 | 99 | 1000.0 |
| 20260506091236 | 54 | 294 | 2.0 | 4.0 | 0.04 | 0.59 | 0.59 | 99 | 999.8 |
| 20260506090232 | 54 | 315 | 3.0 | 6.0 | 0.02 | 0.58 | 0.58 | 99 | 999.8 |
| 20260506085229 | 53 | 316 | 2.0 | 4.0 | 0.01 | 0.57 | 0.57 | 99 | 999.8 |
| 20260506084226 | 53 | 317 | 2.0 | 4.0 | 0.02 | 0.57 | 0.57 | 99 | 999.9 |
| 20260506083223 | 53 | 334 | 2.0 | 3.0 | 0.02 | 0.57 | 0.57 | 99 | 999.7 |
| 20260506082219 | 53 | 311 | 2.0 | 4.0 | 0.02 | 0.57 | 0.57 | 99 | 999.7 |
| 20260506081216 | 53 | 315 | 2.0 | 4.0 | 0.02 | 0.56 | 0.56 | 99 | 999.5 |
| 20260506080313 | 53 | 316 | 3.0 | 5.0 | 0.04 | 0.56 | 0.56 | 99 | 999.5 |
| 20260506073301 | 52 | 306 | 2.0 | 4.0 | 0.05 | 0.54 | 0.54 | 99 | 999.3 |
| 20260506072257 | 52 | 305 | 2.0 | 3.0 | 0.06 | 0.54 | 0.54 | 99 | 999.2 |
| 20260506071254 | 52 | 321 | 3.0 | 8.0 | 0.06 | 0.53 | 0.53 | 99 | 999.2 |
| 20260506070250 | 52 | 335 | 4.0 | 8.0 | 0.07 | 0.52 | 0.52 | 99 | 999.2 |